GFSNIL_sfc_vis_225.txt.gz
Visibility
15.0 15.0 15.0 15.0 15.0 14.9 15.0 15.0 15.0 15.0 15.0 15.0 15.0 15.0 15.0 15.0 15.0 15.0 15.0 15.0 15.0 15.0
4.7 15.0 15.0 15.0 15.0 15.0 15.0 15.0 15.0 15.0 15.0 15.0 15.0 15.0 15.0 15.0 15.0 15.0 15.0 15.0 15.0 15.0
15.0 12.9 15.0 15.0 15.0 15.0 15.0 15.0 15.0 15.0 15.0 15.0 15.0 15.0 15.0 15.0 15.0 15.0 15.0 15.0 15.0 15.0
15.0 6.9 15.0 15.0 15.0 15.0 15.0 15.0 15.0 15.0 15.0 15.0 15.0 15.0 15.0 15.0 15.0 15.0 15.0 15.0 15.0 15.0
15.0 3.9 10.7 5.8 15.0 15.0 15.0 15.0 15.0 15.0 15.0 15.0 15.0 15.0 15.0 15.0 15.0 15.0 15.0 15.0 15.0 15.0
15.0 15.0 15.0 14.3 4.8 15.0 15.0 10.9 14.7 15.0 15.0 15.0 15.0 15.0 15.0 15.0 15.0 15.0 15.0 15.0 15.0 15.0
15.0 15.0 15.0 13.5 15.0 15.0 15.0 14.3 15.0 15.0 15.0 15.0 15.0 15.0 15.0 15.0 15.0 15.0 15.0 15.0 15.0 15.0
15.0 15.0 15.0 13.6 9.5 7.7 5.8 15.0 14.8 15.0 15.0 15.0 15.0 15.0 15.0 15.0 15.0 15.0 15.0 15.0 15.0 15.0
15.0 15.0 15.0 15.0 15.0 15.0 9.5 10.7 15.0 15.0 15.0 15.0 15.0 15.0 15.0 15.0 15.0 15.0 15.0 15.0 15.0 15.0
4.6 0.9 15.0 15.0 15.0 15.0 15.0 15.0 3.8 13.4 15.0 8.0 15.0 15.0 15.0 15.0 15.0 15.0 15.0 15.0 15.0 15.0
2.3 0.9 9.9 15.0 15.0 14.8 15.0 15.0 15.0 12.0 8.0 15.0 15.0 15.0 15.0 15.0 15.0 15.0 15.0 15.0 15.0 15.0
0.7 0.3 1.9 3.8 15.0 15.0 13.7 15.0 15.0 6.4 13.2 4.8 9.4 8.7 14.7 15.0 15.0 15.0 15.0 12.2 11.1 14.8
15.0 1.8 1.1 9.1 12.2 14.5 15.0 15.0 15.0 15.0 7.1 9.3 15.0 15.0 15.0 15.0 15.0 13.7 5.7 15.0 15.0 15.0
15.0 15.0 14.7 11.4 12.2 14.1 7.5 5.9 2.4 4.8 10.7 4.3 9.7 8.4 7.1 6.6 4.0 4.6 11.4 15.0 13.1 15.0

GFSNIL_sfc_vis_228.txt.gz
Visibility
14.1 15.0 15.0 15.0 15.0 8.4 15.0 15.0 15.0 15.0 15.0 15.0 15.0 15.0 15.0 15.0 15.0 15.0 15.0 15.0 15.0 15.0
4.2 15.0 15.0 15.0 15.0 15.0 11.3 15.0 15.0 15.0 15.0 15.0 15.0 15.0 15.0 15.0 15.0 15.0 15.0 15.0 15.0 15.0
3.6 3.3 7.9 15.0 15.0 15.0 15.0 8.4 15.0 15.0 15.0 15.0 15.0 15.0 15.0 15.0 15.0 15.0 15.0 15.0 15.0 15.0
10.4 6.8 3.7 11.1 15.0 15.0 15.0 11.1 11.3 15.0 15.0 15.0 15.0 15.0 15.0 15.0 15.0 15.0 15.0 15.0 15.0 15.0
15.0 15.0 2.9 9.5 11.5 15.0 15.0 12.6 12.0 15.0 15.0 15.0 15.0 15.0 15.0 15.0 15.0 15.0 15.0 15.0 15.0 15.0
0.5 1.2 1.5 15.0 3.0 14.3 15.0 14.8 15.0 15.0 15.0 15.0 15.0 15.0 15.0 15.0 15.0 15.0 15.0 15.0 15.0 15.0
0.4 12.0 12.3 13.4 15.0 9.5 15.0 14.2 15.0 13.8 15.0 15.0 15.0 15.0 15.0 15.0 15.0 15.0 15.0 15.0 15.0 15.0
6.6 15.0 13.5 15.0 11.7 8.6 6.2 8.8 3.3 12.3 9.5 14.7 15.0 15.0 15.0 15.0 15.0 15.0 15.0 15.0 15.0 15.0
15.0 14.9 15.0 15.0 15.0 14.4 15.0 6.5 15.0 4.6 5.5 15.0 15.0 15.0 15.0 15.0 15.0 15.0 15.0 15.0 15.0 15.0
15.0 8.7 15.0 15.0 15.0 15.0 15.0 15.0 15.0 15.0 10.7 3.7 13.4 15.0 15.0 15.0 15.0 15.0 15.0 15.0 15.0 15.0
15.0 15.0 7.0 0.6 14.1 15.0 15.0 15.0 15.0 8.5 15.0 15.0 15.0 8.1 15.0 15.0 15.0 15.0 15.0 15.0 15.0 15.0
15.0 8.4 0.2 0.1 0.3 8.1 15.0 15.0 15.0 15.0 15.0 15.0 12.8 14.6 15.0 15.0 15.0 15.0 15.0 15.0 15.0 15.0
15.0 15.0 0.2 14.9 6.2 14.2 13.4 14.9 14.1 15.0 9.3 15.0 15.0 11.7 15.0 15.0 15.0 15.0 15.0 15.0 15.0 15.0
15.0 15.0 15.0 7.8 14.9 0.9 0.2 0.4 0.3 10.2 11.8 14.9 15.0 15.0 15.0 15.0 15.0 15.0 15.0 15.0 3.4 11.8

GFSNIL_sfc_vis_234.txt.gz
Visibility
15.0 15.0 15.0 15.0 15.0 15.0 15.0 15.0 15.0 15.0 15.0 15.0 15.0 10.5 13.9 15.0 15.0 15.0 15.0 15.0 15.0 15.0
15.0 15.0 14.9 15.0 12.1 15.0 15.0 15.0 15.0 14.9 14.4 15.0 15.0 15.0 10.2 15.0 15.0 15.0 15.0 15.0 15.0 15.0
15.0 15.0 15.0 15.0 15.0 14.5 13.2 14.1 5.2 4.4 4.4 4.9 15.0 15.0 15.0 15.0 15.0 15.0 15.0 15.0 15.0 15.0
15.0 15.0 15.0 15.0 15.0 12.2 3.5 4.5 3.8 3.3 5.2 5.2 15.0 15.0 15.0 15.0 15.0 15.0 15.0 15.0 15.0 15.0
15.0 15.0 0.5 11.9 15.0 6.2 4.0 4.2 3.3 3.7 6.3 6.6 12.6 8.1 15.0 15.0 15.0 15.0 15.0 15.0 15.0 15.0
15.0 15.0 15.0 15.0 5.4 7.3 10.5 4.2 3.0 2.7 4.1 7.7 12.6 4.9 15.0 15.0 15.0 15.0 15.0 15.0 15.0 15.0
15.0 15.0 15.0 15.0 5.7 7.5 4.9 2.5 2.0 2.8 3.6 9.9 15.0 15.0 15.0 15.0 15.0 15.0 15.0 15.0 15.0 15.0
15.0 15.0 15.0 12.2 9.5 1.1 1.1 4.0 3.2 3.5 5.7 10.5 15.0 15.0 15.0 15.0 15.0 15.0 15.0 15.0 15.0 15.0
15.0 15.0 15.0 15.0 15.0 0.2 0.2 2.2 0.4 2.6 8.8 6.3 7.4 15.0 7.8 15.0 15.0 15.0 15.0 15.0 15.0 15.0
15.0 15.0 15.0 15.0 15.0 0.1 0.1 0.2 0.2 0.7 4.4 4.0 12.0 15.0 13.3 12.4 15.0 15.0 15.0 15.0 15.0 15.0
15.0 15.0 15.0 15.0 15.0 12.1 0.2 0.1 0.1 0.2 1.6 5.2 6.7 7.9 4.9 4.1 7.9 15.0 15.0 15.0 15.0 15.0
15.0 15.0 15.0 15.0 15.0 11.0 0.3 0.2 0.4 1.8 0.5 11.1 1.0 3.5 3.0 4.5 12.6 15.0 15.0 15.0 15.0 15.0
15.0 15.0 15.0 15.0 15.0 0.4 14.7 1.7 14.5 0.7 4.7 4.6 4.2 3.7 6.0 7.1 5.5 6.2 9.1 12.8 15.0 15.0
15.0 15.0 15.0 15.0 1.1 0.1 0.1 0.1 0.1 0.1 4.9 10.6 4.1 3.3 3.4 4.7 5.5 13.7 15.0 9.5 8.3 15.0

GFSNIL_sfc_vis_240.txt.gz
Visibility
15.0 15.0 15.0 15.0 15.0 15.0 15.0 15.0 15.0 15.0 15.0 15.0 15.0 10.5 14.4 12.3 15.0 15.0 15.0 15.0 15.0 15.0
15.0 15.0 15.0 15.0 15.0 15.0 15.0 15.0 15.0 15.0 15.0 15.0 15.0 15.0 15.0 15.0 15.0 15.0 15.0 15.0 15.0 15.0
15.0 15.0 15.0 15.0 15.0 15.0 15.0 15.0 15.0 15.0 15.0 15.0 15.0 15.0 15.0 14.9 15.0 12.2 15.0 15.0 15.0 15.0
15.0 15.0 15.0 15.0 15.0 11.8 15.0 14.9 15.0 15.0 15.0 15.0 15.0 15.0 15.0 15.0 15.0 15.0 15.0 13.1 15.0 15.0
15.0 15.0 15.0 15.0 15.0 15.0 15.0 15.0 15.0 15.0 15.0 15.0 15.0 15.0 15.0 15.0 15.0 14.9 15.0 15.0 10.6 15.0
15.0 15.0 15.0 15.0 15.0 15.0 15.0 15.0 15.0 15.0 15.0 15.0 15.0 15.0 15.0 15.0 15.0 15.0 15.0 15.0 13.5 7.0
15.0 15.0 15.0 15.0 15.0 15.0 15.0 15.0 15.0 15.0 15.0 15.0 13.3 15.0 15.0 15.0 13.6 15.0 15.0 10.9 14.8 15.0
15.0 15.0 15.0 15.0 15.0 15.0 15.0 15.0 15.0 15.0 15.0 15.0 15.0 15.0 15.0 14.6 14.4 9.3 15.0 15.0 9.1 5.8
15.0 15.0 15.0 15.0 15.0 15.0 15.0 15.0 9.7 14.6 2.2 14.8 15.0 8.1 15.0 15.0 8.8 10.0 6.7 11.8 4.3 5.5
15.0 15.0 15.0 15.0 15.0 15.0 15.0 15.0 15.0 15.0 0.6 0.1 15.0 7.2 6.5 8.6 7.8 6.3 7.3 6.8 5.5 6.7
15.0 15.0 15.0 15.0 15.0 15.0 15.0 15.0 15.0 7.2 0.6 0.2 15.0 15.0 15.0 7.5 7.4 14.7 10.2 8.4 6.2 8.2
15.0 15.0 15.0 15.0 15.0 15.0 15.0 15.0 15.0 14.4 0.3 0.1 4.6 11.9 15.0 3.4 9.2 8.0 9.3 8.8 4.9 6.0
15.0 15.0 15.0 15.0 15.0 15.0 15.0 14.1 0.1 0.2 15.0 15.0 2.0 15.0 15.0 15.0 4.3 7.1 13.0 12.8 15.0 9.4
15.0 15.0 15.0 15.0 15.0 15.0 12.9 0.1 0.0 0.1 0.1 4.4 7.5 0.4 13.6 14.9 14.8 15.0 13.0 15.0 15.0 14.8

GFSNIL_sfc_vis_243.txt.gz
Visibility
15.0 15.0 15.0 15.0 15.0 15.0 15.0 15.0 15.0 15.0 15.0 15.0 15.0 15.0 15.0 9.3 6.4 15.0 15.0 15.0 15.0 15.0
15.0 15.0 15.0 15.0 15.0 15.0 15.0 15.0 15.0 15.0 15.0 15.0 15.0 8.2 7.5 15.0 15.0 15.0 14.8 15.0 15.0 14.9
15.0 15.0 15.0 15.0 15.0 15.0 15.0 15.0 15.0 15.0 15.0 15.0 15.0 15.0 15.0 15.0 15.0 14.9 10.9 14.9 15.0 15.0
15.0 15.0 15.0 15.0 15.0 15.0 15.0 15.0 15.0 15.0 15.0 15.0 15.0 15.0 15.0 15.0 15.0 15.0 15.0 15.0 13.1 15.0
15.0 15.0 15.0 15.0 15.0 15.0 15.0 15.0 15.0 14.7 15.0 15.0 15.0 15.0 15.0 15.0 15.0 15.0 15.0 15.0 15.0 15.0
15.0 15.0 15.0 15.0 15.0 15.0 15.0 15.0 15.0 15.0 12.1 15.0 15.0 15.0 15.0 15.0 15.0 15.0 15.0 15.0 15.0 15.0
15.0 15.0 15.0 15.0 15.0 15.0 15.0 15.0 15.0 15.0 12.7 15.0 15.0 15.0 15.0 15.0 15.0 15.0 15.0 15.0 15.0 15.0
15.0 15.0 15.0 15.0 15.0 15.0 15.0 15.0 15.0 15.0 15.0 15.0 15.0 15.0 15.0 15.0 15.0 15.0 12.3 14.9 15.0 15.0
15.0 15.0 15.0 15.0 15.0 15.0 15.0 15.0 15.0 15.0 15.0 15.0 15.0 12.9 15.0 15.0 15.0 15.0 15.0 15.0 15.0 15.0
15.0 15.0 15.0 15.0 15.0 15.0 15.0 15.0 15.0 15.0 15.0 15.0 15.0 15.0 15.0 15.0 15.0 15.0 15.0 15.0 14.8 15.0
15.0 15.0 15.0 15.0 15.0 15.0 15.0 15.0 15.0 15.0 15.0 15.0 15.0 15.0 15.0 15.0 15.0 15.0 15.0 15.0 12.8 15.0
15.0 15.0 15.0 15.0 15.0 15.0 15.0 15.0 15.0 15.0 15.0 15.0 15.0 15.0 8.1 7.3 0.6 0.6 15.0 15.0 12.6 12.2
15.0 15.0 15.0 15.0 15.0 15.0 15.0 15.0 15.0 15.0 15.0 15.0 15.0 15.0 15.0 2.5 3.9 0.2 0.6 12.9 14.8 7.2
15.0 15.0 15.0 15.0 15.0 15.0 15.0 15.0 0.9 7.3 0.2 15.0 15.0 15.0 15.0 15.0 1.3 4.5 7.3 7.5 11.7 15.0

GFSNIL_sfc_vis_249.txt.gz
Visibility
3.0 3.1 4.2 15.0 12.8 15.0 15.0 15.0 15.0 15.0 10.2 15.0 14.5 15.0 15.0 15.0 15.0 14.7 15.0 14.8 15.0 15.0
9.7 14.2 4.1 4.8 7.8 15.0 15.0 15.0 15.0 15.0 15.0 15.0 13.6 14.9 15.0 15.0 15.0 15.0 12.4 12.4 10.3 12.6
10.4 4.6 11.7 7.6 15.0 14.2 15.0 15.0 15.0 15.0 15.0 15.0 15.0 2.2 6.2 10.5 12.3 14.6 15.0 15.0 15.0 15.0
5.8 13.1 10.3 6.1 15.0 15.0 15.0 15.0 15.0 15.0 15.0 15.0 15.0 15.0 15.0 13.9 15.0 13.6 11.5 15.0 15.0 15.0
1.8 4.1 14.8 15.0 15.0 15.0 15.0 15.0 15.0 15.0 15.0 15.0 15.0 15.0 15.0 4.8 10.6 14.7 15.0 15.0 15.0 14.8
3.7 15.0 14.8 15.0 15.0 15.0 15.0 15.0 15.0 15.0 15.0 15.0 15.0 15.0 15.0 15.0 15.0 10.5 15.0 11.4 15.0 15.0
3.1 7.1 14.3 9.2 15.0 15.0 15.0 15.0 15.0 15.0 15.0 15.0 15.0 15.0 13.5 14.3 15.0 15.0 15.0 15.0 15.0 15.0
1.9 4.3 6.2 15.0 15.0 15.0 15.0 15.0 15.0 15.0 15.0 15.0 15.0 15.0 15.0 13.8 10.5 12.0 15.0 15.0 15.0 15.0
15.0 15.0 15.0 15.0 15.0 15.0 15.0 15.0 15.0 15.0 15.0 15.0 15.0 15.0 15.0 15.0 15.0 15.0 15.0 15.0 15.0 15.0
15.0 15.0 15.0 15.0 15.0 15.0 15.0 15.0 15.0 15.0 15.0 15.0 15.0 15.0 15.0 15.0 15.0 15.0 0.5 14.8 15.0 15.0
15.0 15.0 15.0 15.0 15.0 15.0 15.0 15.0 15.0 15.0 15.0 15.0 15.0 15.0 15.0 15.0 15.0 15.0 15.0 15.0 15.0 15.0
15.0 15.0 15.0 15.0 15.0 15.0 15.0 15.0 15.0 15.0 15.0 15.0 15.0 15.0 15.0 15.0 15.0 15.0 15.0 15.0 15.0 15.0
15.0 15.0 15.0 15.0 15.0 15.0 15.0 15.0 15.0 15.0 15.0 15.0 15.0 15.0 15.0 15.0 15.0 5.6 13.7 0.2 6.5 15.0
15.0 15.0 15.0 15.0 15.0 15.0 15.0 15.0 15.0 15.0 15.0 15.0 15.0 15.0 15.0 15.0 14.4 0.3 0.2 0.1 0.1 7.8

GFSNIL_sfc_vis_252.txt.gz
Visibility
15.0 15.0 11.8 0.7 7.5 5.6 9.5 1.1 0.8 15.0 14.7 13.8 13.7 6.6 10.7 14.3 12.9 13.9 9.5 15.0 14.2 15.0
8.1 13.6 15.0 11.1 4.3 3.8 5.3 5.7 15.0 11.9 0.1 1.4 6.4 9.6 13.6 14.6 15.0 15.0 10.4 13.6 12.0 14.4
0.1 11.3 3.0 12.4 11.3 4.0 3.6 15.0 15.0 15.0 13.7 1.1 6.7 11.5 11.5 5.8 15.0 15.0 15.0 15.0 15.0 8.2
5.8 0.1 15.0 0.1 7.2 9.6 4.1 9.5 15.0 15.0 15.0 15.0 10.2 15.0 15.0 15.0 15.0 15.0 15.0 15.0 15.0 15.0
1.4 4.9 7.7 10.3 2.5 8.9 2.7 3.9 15.0 15.0 15.0 15.0 15.0 14.6 6.7 2.3 15.0 15.0 15.0 15.0 15.0 15.0
0.2 0.5 2.6 4.8 9.5 3.3 1.8 3.4 15.0 15.0 15.0 15.0 15.0 15.0 15.0 15.0 15.0 11.7 15.0 15.0 15.0 15.0
0.7 0.3 0.7 3.1 6.6 1.8 2.9 14.7 15.0 15.0 15.0 15.0 15.0 15.0 15.0 15.0 15.0 15.0 15.0 15.0 15.0 15.0
3.8 4.6 0.7 3.7 3.4 7.2 10.4 15.0 15.0 15.0 15.0 15.0 8.6 15.0 15.0 15.0 15.0 15.0 15.0 15.0 15.0 10.4
11.0 10.2 3.7 1.8 0.7 8.1 12.4 12.8 15.0 15.0 15.0 15.0 15.0 13.2 15.0 15.0 15.0 15.0 14.9 15.0 15.0 15.0
15.0 15.0 15.0 15.0 2.6 2.1 8.5 12.1 15.0 15.0 15.0 15.0 15.0 15.0 15.0 15.0 15.0 15.0 15.0 15.0 15.0 15.0
15.0 15.0 15.0 15.0 15.0 15.0 14.2 7.4 15.0 15.0 15.0 15.0 15.0 15.0 15.0 15.0 15.0 15.0 15.0 15.0 15.0 15.0
15.0 15.0 15.0 15.0 15.0 15.0 15.0 15.0 15.0 15.0 15.0 15.0 15.0 15.0 15.0 15.0 15.0 15.0 15.0 15.0 15.0 15.0
15.0 15.0 15.0 15.0 15.0 15.0 15.0 15.0 15.0 15.0 15.0 15.0 15.0 15.0 15.0 15.0 15.0 15.0 15.0 15.0 15.0 15.0
15.0 15.0 15.0 15.0 15.0 15.0 15.0 15.0 15.0 15.0 15.0 15.0 15.0 15.0 15.0 15.0 15.0 6.6 0.3 15.0 15.0 15.0

GFSNIL_sfc_vis_255.txt.gz
Visibility
13.2 15.0 15.0 15.0 15.0 15.0 14.7 14.6 15.0 14.4 15.0 15.0 15.0 15.0 15.0 14.1 14.8 14.8 15.0 15.0 12.0 15.0
15.0 0.0 15.0 14.9 15.0 15.0 15.0 8.8 6.2 5.4 6.4 14.7 15.0 15.0 15.0 14.9 14.2 15.0 15.0 15.0 14.9 7.7
0.2 0.1 0.1 5.8 14.8 15.0 14.1 11.5 14.4 6.6 8.4 10.0 11.2 13.4 15.0 15.0 12.2 11.0 12.6 13.3 11.3 7.4
0.3 0.3 0.0 0.1 5.8 11.9 6.8 11.5 2.7 1.4 10.1 9.6 11.2 6.4 14.6 12.0 14.7 12.6 13.8 15.0 14.7 15.0
0.3 0.2 0.2 0.1 0.0 0.2 14.9 14.0 5.1 3.8 0.9 0.3 0.3 15.0 14.8 10.3 10.5 13.4 14.9 15.0 15.0 13.5
0.2 0.1 0.1 0.1 0.0 0.1 0.1 1.6 5.8 2.6 5.2 5.6 4.0 0.9 1.9 10.1 11.5 14.9 15.0 15.0 15.0 15.0
0.2 0.2 0.2 0.2 0.1 0.4 0.1 0.1 0.2 3.0 2.7 4.0 15.0 15.0 14.2 11.8 1.3 15.0 12.3 14.9 12.6 14.7
1.5 0.2 0.7 0.2 0.1 3.8 7.5 0.2 0.1 0.6 4.3 3.9 12.7 11.8 15.0 15.0 6.5 12.4 0.4 6.0 15.0 15.0
15.0 3.3 1.0 2.0 0.4 0.2 8.1 5.2 1.9 0.9 2.2 3.7 14.9 15.0 15.0 15.0 15.0 15.0 3.7 0.3 2.3 15.0
15.0 15.0 15.0 2.4 3.6 1.3 0.5 3.9 2.4 2.6 3.4 13.2 15.0 15.0 15.0 15.0 15.0 15.0 15.0 7.7 15.0 13.6
15.0 15.0 15.0 8.2 2.1 1.3 0.6 0.3 0.9 2.2 8.5 15.0 15.0 8.7 15.0 15.0 15.0 15.0 15.0 15.0 15.0 11.9
15.0 15.0 15.0 15.0 5.3 13.0 9.4 0.8 0.3 1.1 7.6 14.3 14.4 15.0 15.0 15.0 15.0 15.0 15.0 15.0 15.0 15.0
15.0 15.0 15.0 15.0 15.0 15.0 15.0 15.0 15.0 4.7 1.5 15.0 15.0 15.0 15.0 15.0 15.0 15.0 15.0 15.0 15.0 15.0
15.0 15.0 15.0 15.0 15.0 15.0 15.0 15.0 15.0 15.0 15.0 15.0 15.0 15.0 15.0 15.0 15.0 11.4 0.2 6.2 15.0 15.0

GFSNIL_sfc_vis_261.txt.gz
Visibility
15.0 2.7 6.9 3.9 1.5 9.7 9.6 15.0 15.0 15.0 15.0 15.0 15.0 8.1 12.2 15.0 15.0 15.0 15.0 15.0 15.0 14.4
15.0 3.2 1.4 11.3 0.1 0.2 7.8 13.2 15.0 15.0 15.0 15.0 15.0 12.4 14.4 15.0 15.0 15.0 15.0 15.0 14.5 15.0
15.0 1.6 0.9 7.3 2.7 2.7 5.5 9.6 15.0 15.0 15.0 15.0 15.0 13.5 4.8 15.0 15.0 15.0 15.0 15.0 15.0 15.0
15.0 0.9 0.7 0.5 3.3 0.1 7.4 14.4 8.5 13.7 15.0 15.0 15.0 15.0 12.3 15.0 7.8 12.0 14.6 15.0 15.0 15.0
15.0 13.9 0.1 0.3 0.2 0.0 3.3 14.5 12.8 15.0 15.0 11.0 15.0 15.0 15.0 15.0 14.9 8.6 10.0 15.0 15.0 15.0
15.0 14.1 0.2 0.5 0.5 0.2 0.0 11.8 15.0 15.0 15.0 15.0 15.0 15.0 15.0 15.0 8.1 15.0 11.9 15.0 15.0 15.0
15.0 15.0 0.5 0.5 0.3 0.2 0.3 0.1 15.0 9.2 14.3 15.0 15.0 15.0 15.0 15.0 13.6 8.1 13.9 13.1 15.0 15.0
15.0 15.0 14.8 0.2 0.2 0.8 1.3 0.3 6.3 0.6 15.0 15.0 9.5 15.0 15.0 15.0 15.0 1.9 12.2 14.7 15.0 15.0
15.0 15.0 15.0 8.1 1.2 4.7 0.4 0.3 0.8 0.4 0.2 0.1 0.1 7.4 15.0 15.0 14.8 10.7 15.0 15.0 15.0 15.0
15.0 15.0 15.0 15.0 3.3 0.7 0.2 0.2 0.2 0.3 0.3 0.1 0.1 0.1 9.0 15.0 0.5 10.0 14.9 15.0 15.0 2.2
15.0 15.0 15.0 15.0 5.7 0.9 0.2 0.1 0.1 0.2 0.3 0.1 0.1 0.0 1.2 7.3 9.2 2.6 14.5 15.0 13.7 15.0
14.3 15.0 15.0 15.0 15.0 2.8 0.2 0.1 0.1 0.2 0.2 0.1 0.0 0.0 0.1 15.0 13.8 0.6 0.1 0.3 5.5 8.7
15.0 15.0 13.7 15.0 13.6 2.7 1.5 0.4 0.1 0.1 1.5 0.1 0.0 0.0 0.1 0.3 13.4 0.3 0.6 1.8 2.4 5.2
15.0 15.0 15.0 15.0 15.0 14.9 4.1 2.1 0.6 1.0 0.9 0.2 0.0 0.0 0.0 0.1 0.1 1.0 0.5 0.4 0.4 12.4

GFSNIL_sfc_vis_267.txt.gz
Visibility
15.0 15.0 15.0 15.0 15.0 14.9 14.0 15.0 15.0 15.0 15.0 15.0 15.0 5.6 6.9 15.0 12.4 5.5 4.7 7.2 8.5 15.0
15.0 15.0 15.0 15.0 15.0 15.0 12.8 13.6 15.0 15.0 15.0 15.0 15.0 12.7 5.9 15.0 15.0 7.8 3.8 9.1 11.7 12.3
15.0 15.0 15.0 15.0 15.0 15.0 15.0 14.9 15.0 15.0 15.0 15.0 15.0 15.0 5.3 11.5 15.0 15.0 12.0 6.4 5.0 8.9
15.0 15.0 15.0 15.0 15.0 15.0 15.0 15.0 15.0 15.0 15.0 15.0 15.0 15.0 13.6 4.5 15.0 9.2 15.0 15.0 8.3 5.4
15.0 15.0 15.0 15.0 15.0 15.0 15.0 15.0 15.0 15.0 15.0 15.0 15.0 15.0 15.0 13.1 3.6 15.0 15.0 15.0 15.0 5.9
15.0 15.0 15.0 15.0 15.0 15.0 15.0 15.0 15.0 15.0 15.0 15.0 15.0 15.0 15.0 15.0 14.2 3.4 15.0 14.2 10.8 6.9
15.0 15.0 15.0 15.0 15.0 15.0 15.0 15.0 10.9 15.0 11.9 15.0 12.5 15.0 15.0 15.0 15.0 10.6 7.0 15.0 15.0 15.0
15.0 15.0 15.0 15.0 15.0 15.0 15.0 15.0 15.0 7.1 12.0 15.0 14.9 15.0 15.0 15.0 8.8 15.0 6.5 8.2 15.0 15.0
15.0 15.0 15.0 15.0 15.0 15.0 15.0 15.0 14.9 10.8 11.8 13.2 4.5 12.8 11.6 7.6 0.1 2.3 15.0 15.0 15.0 15.0
15.0 15.0 15.0 15.0 15.0 15.0 15.0 15.0 15.0 15.0 15.0 11.3 6.2 10.6 12.2 9.3 0.2 0.1 15.0 15.0 15.0 15.0
15.0 15.0 15.0 15.0 15.0 15.0 15.0 15.0 10.9 13.1 15.0 3.7 11.8 11.2 2.6 0.2 0.1 0.1 10.3 15.0 15.0 15.0
6.7 7.7 7.7 13.2 14.2 15.0 15.0 15.0 15.0 14.8 15.0 3.4 11.0 13.6 0.1 0.0 0.0 0.0 0.4 15.0 15.0 15.0
4.8 1.8 5.8 9.1 9.4 15.0 15.0 15.0 7.8 3.9 6.0 0.5 0.2 5.6 0.0 0.0 0.0 0.0 0.1 15.0 15.0 15.0
3.5 1.7 8.1 12.2 15.0 15.0 15.0 15.0 0.7 0.3 0.4 0.1 0.1 0.0 0.0 0.0 0.0 0.0 0.0 13.1 15.0 14.4

GFSNIL_sfc_vis_270.txt.gz
Visibility
15.0 15.0 15.0 15.0 15.0 15.0 15.0 15.0 15.0 15.0 15.0 15.0 15.0 15.0 15.0 15.0 9.7 14.1 15.0 15.0 2.6 2.9
15.0 15.0 15.0 15.0 15.0 15.0 15.0 15.0 15.0 15.0 15.0 15.0 15.0 15.0 15.0 15.0 15.0 6.4 13.6 15.0 15.0 2.0
15.0 15.0 15.0 15.0 15.0 15.0 15.0 15.0 15.0 15.0 15.0 15.0 15.0 15.0 15.0 15.0 15.0 15.0 9.3 15.0 15.0 15.0
15.0 15.0 15.0 15.0 15.0 15.0 15.0 15.0 15.0 15.0 15.0 15.0 15.0 15.0 15.0 15.0 15.0 15.0 13.1 15.0 13.3 15.0
15.0 15.0 15.0 15.0 15.0 15.0 15.0 15.0 15.0 15.0 15.0 15.0 15.0 15.0 15.0 15.0 15.0 15.0 15.0 3.9 15.0 15.0
15.0 15.0 15.0 15.0 15.0 15.0 15.0 15.0 15.0 15.0 12.4 15.0 15.0 15.0 15.0 15.0 15.0 15.0 15.0 15.0 5.8 4.1
15.0 15.0 15.0 15.0 15.0 15.0 15.0 15.0 15.0 15.0 15.0 15.0 15.0 15.0 15.0 15.0 15.0 15.0 14.1 15.0 3.2 11.5
15.0 15.0 15.0 15.0 15.0 15.0 15.0 15.0 15.0 15.0 15.0 15.0 13.1 15.0 15.0 15.0 15.0 15.0 15.0 15.0 14.9 3.1
15.0 15.0 15.0 15.0 15.0 15.0 15.0 15.0 15.0 15.0 15.0 15.0 15.0 15.0 14.7 14.0 15.0 13.7 9.0 3.7 15.0 9.0
15.0 15.0 15.0 15.0 15.0 15.0 15.0 15.0 15.0 15.0 15.0 15.0 15.0 11.8 12.1 14.5 14.0 3.9 3.6 3.3 15.0 15.0
9.7 5.9 15.0 15.0 15.0 15.0 15.0 15.0 15.0 15.0 15.0 8.2 15.0 9.7 12.6 15.0 14.4 2.1 0.3 1.5 15.0 15.0
0.5 0.2 4.1 4.4 15.0 15.0 15.0 15.0 15.0 15.0 15.0 0.8 15.0 14.2 14.6 5.5 0.1 0.0 0.1 14.1 15.0 11.7
1.0 0.2 0.2 2.1 0.9 15.0 15.0 15.0 15.0 15.0 10.3 0.3 0.2 15.0 6.0 2.7 0.0 0.0 0.1 0.1 0.2 15.0
0.5 0.2 0.2 0.2 0.7 15.0 15.0 12.2 11.1 4.5 6.0 6.2 5.5 0.3 1.3 0.0 0.0 0.0 0.0 0.0 0.0 12.3

GFSNIL_sfc_vis_273.txt.gz
Visibility
15.0 15.0 15.0 15.0 15.0 15.0 15.0 15.0 15.0 15.0 15.0 15.0 15.0 15.0 15.0 15.0 15.0 15.0 15.0 15.0 11.7 12.3
15.0 15.0 15.0 15.0 15.0 15.0 15.0 15.0 15.0 15.0 15.0 15.0 15.0 15.0 15.0 15.0 15.0 15.0 15.0 15.0 15.0 15.0
15.0 15.0 15.0 15.0 15.0 15.0 15.0 15.0 15.0 15.0 15.0 15.0 15.0 15.0 15.0 15.0 15.0 15.0 15.0 15.0 15.0 5.8
15.0 15.0 15.0 15.0 15.0 15.0 15.0 15.0 15.0 15.0 15.0 15.0 15.0 15.0 15.0 15.0 15.0 15.0 15.0 15.0 15.0 15.0
15.0 15.0 15.0 15.0 15.0 15.0 15.0 15.0 15.0 15.0 15.0 15.0 15.0 15.0 15.0 15.0 15.0 15.0 15.0 15.0 15.0 15.0
15.0 15.0 15.0 15.0 15.0 15.0 15.0 15.0 15.0 15.0 15.0 15.0 15.0 15.0 15.0 15.0 15.0 15.0 15.0 15.0 15.0 15.0
15.0 15.0 15.0 15.0 15.0 15.0 15.0 15.0 15.0 15.0 15.0 15.0 15.0 15.0 15.0 15.0 15.0 15.0 15.0 15.0 15.0 15.0
15.0 15.0 15.0 15.0 15.0 15.0 15.0 15.0 15.0 15.0 15.0 15.0 15.0 15.0 14.4 15.0 15.0 15.0 15.0 15.0 15.0 15.0
15.0 15.0 15.0 15.0 15.0 15.0 15.0 15.0 15.0 15.0 15.0 15.0 15.0 9.9 8.9 14.8 14.8 7.4 4.9 15.0 15.0 15.0
15.0 14.9 15.0 15.0 13.8 15.0 15.0 15.0 15.0 15.0 15.0 15.0 15.0 13.8 8.2 15.0 15.0 5.0 3.2 4.4 15.0 15.0
5.8 0.6 15.0 5.2 1.2 3.8 11.3 14.5 15.0 15.0 15.0 15.0 15.0 13.0 10.5 12.9 11.0 4.8 7.7 14.8 15.0 15.0
0.3 0.2 2.0 1.4 6.5 2.7 0.2 1.4 4.2 15.0 15.0 15.0 15.0 15.0 7.3 5.2 1.4 0.7 4.2 4.2 15.0 15.0
0.2 0.1 0.2 0.1 0.3 2.9 2.7 0.4 15.0 14.4 15.0 15.0 11.6 15.0 15.0 4.8 0.0 0.0 0.2 13.9 4.0 15.0
0.2 0.1 0.2 0.2 1.2 0.3 0.4 1.2 5.6 4.6 15.0 15.0 15.0 15.0 11.4 5.0 0.1 0.0 0.0 0.0 7.9 14.5